Reno, NV

9:05 PM PST on December 09, 2019 (GMT -0800)
Reno-Tahoe International

Weather History for KRNO - August, 2019

Change the Weather History Date:

Friday, August 9, 2019

  Actual Average Record
Temperature  
Mean Temperature 72 °F 75 °F  
Max Temperature 84 °F 92 °F 104 °F (2018)
Min Temperature 59 °F 57 °F 35 °F (1895)
Degree Days  
Heating Degree Days 0 0  
Month to date heating degree days 0 0  
Since 1 June heating degree days 15 61  
Since 1 July heating degree days 0 5  
Cooling Degree Days 7 10  
Month to date cooling degree days 117 93  
Year to date cooling degree days 708 580  
Since 1 June cooling degree days 694 543  
Growing Degree Days 22 (Base 50)    
Moisture  
Dew Point 36 °F    
Average Humidity 30    
Maximum Humidity 52    
Minimum Humidity 13    
Precipitation  
Precipitation 0.00 in 0.01 in 0.08 in (1962)
Month to date precipitation T 0.09  
Year to date precipitation 8.76 4.55  
Snow  
Snow 0.00 in 0.00 in 0.00 in ()
Month to date snowfall 0.0 0.0  
Since 1 June snowfall 0.0 T  
Since 1 July snowfall 0.0 0.0  
Snow Depth 0.00 in    
Sea Level Pressure  
Sea Level Pressure 29.85 in    
Wind  
Wind Speed 5 mph ()    
Max Wind Speed 25 mph    
Max Gust Speed 32 mph    
Visibility 10.0 miles    
Events      
T = Trace of Precipitation, MM = Missing Value Source: Averaged Metar Reports

Daily Weather History Graph

Daily Weather History Graph

Search for Another Location

Airport or City:

Astronomy

Aug. 09, 2019 Rise Set
Actual Time 6:05 AM PDT 8:02 PM PDT
Civil Twilight 5:36 AM PDT 8:31 PM PDT
Nautical Twilight 5:00 AM PDT 9:07 PM PDT
Astronomical Twilight 4:22 AM PDT 9:45 PM PDT
Moon 3:48 PM PDT (8/9) 1:06 AM PDT (8/9)
Length of Visible Light 14h 55m
Length of Day
13h 56m
Waxing Gibbous, 71% of the Moon is Illuminated
Aug 9
Waxing Gibbous
Aug 15
Full
Aug 23
Last Quarter
Aug 30
New
Sep 5
First Quarter

Hourly Weather History & Observations

Time (PDT) Temp. Dew Point Humidity Pressure Visibility Wind Dir Wind Speed Gust Speed Precip Events Conditions
12:55 AM 66.9 °F 42.1 °F 40% 29.87 in 10.0 mi WNW 6.9 mph - N/A   Partly Cloudy
1:55 AM 66.0 °F 43.0 °F 43% 29.86 in 10.0 mi Calm Calm - N/A   Scattered Clouds
2:55 AM 66.0 °F 43.0 °F 43% 29.86 in 10.0 mi West 3.5 mph - N/A   Mostly Cloudy
3:55 AM 64.0 °F 43.0 °F 46% 29.86 in 10.0 mi Calm Calm - N/A   Mostly Cloudy
4:55 AM 63.0 °F 45.0 °F 52% 29.84 in 10.0 mi Calm Calm - N/A   Mostly Cloudy
5:55 AM 61.0 °F 42.1 °F 50% 29.86 in 10.0 mi Calm Calm - N/A   Scattered Clouds
6:55 AM 62.1 °F 44.1 °F 52% 29.88 in 10.0 mi SW 3.5 mph - N/A   Scattered Clouds
7:55 AM 63.0 °F 45.0 °F 52% 29.89 in 10.0 mi Calm Calm - N/A   Partly Cloudy
8:55 AM 69.1 °F 44.1 °F 40% 29.88 in 10.0 mi Variable 3.5 mph - N/A   Scattered Clouds
9:55 AM 73.0 °F 44.1 °F 35% 29.87 in 10.0 mi North 4.6 mph - N/A   Mostly Cloudy
10:55 AM 75.0 °F 39.9 °F 28% 29.87 in 10.0 mi Calm Calm - N/A   Mostly Cloudy
11:55 AM 77.0 °F 37.9 °F 24% 29.86 in 10.0 mi Variable 4.6 mph - N/A   Mostly Cloudy
12:55 PM 79.0 °F 33.1 °F 19% 29.85 in 10.0 mi South 3.5 mph - N/A   Mostly Cloudy
1:55 PM 80.1 °F 25.0 °F 13% 29.83 in 10.0 mi South 5.8 mph - N/A   Mostly Cloudy
2:55 PM 82.0 °F 34.0 °F 18% 29.82 in 10.0 mi NW 21.9 mph 27.6 mph N/A   Mostly Cloudy
3:55 PM 82.9 °F 32.0 °F 16% 29.82 in 10.0 mi WNW 13.8 mph 21.9 mph N/A   Mostly Cloudy
4:55 PM 80.1 °F 28.0 °F 15% 29.81 in 10.0 mi West 17.3 mph 27.6 mph N/A   Mostly Cloudy
5:55 PM 78.1 °F 28.9 °F 17% 29.82 in 10.0 mi West 13.8 mph - N/A   Mostly Cloudy
6:55 PM 75.9 °F 28.9 °F 18% 29.82 in 10.0 mi West 20.7 mph 28.8 mph N/A   Scattered Clouds
7:55 PM 73.0 °F 26.1 °F 17% 29.84 in 10.0 mi West 15.0 mph 26.5 mph N/A   Scattered Clouds
8:55 PM 71.1 °F 25.0 °F 18% 29.84 in 10.0 mi WNW 19.6 mph 26.5 mph N/A   Scattered Clouds
9:55 PM 69.1 °F 30.0 °F 23% 29.86 in 10.0 mi West 6.9 mph 19.6 mph N/A   Partly Cloudy
10:55 PM 68.0 °F 30.0 °F 24% 29.86 in 10.0 mi WNW 4.6 mph - N/A   Partly Cloudy
11:55 PM 66.0 °F 30.0 °F 26% 29.87 in 10.0 mi NW 9.2 mph - N/A   Clear